GLG1601 SEGU-SEQM

Flight info

Callsign GLG1601
Flight time 0h 30m
Altitude 24000
Route REGAP2 PAMIS G675 QIT
Aircraft A320/M-SDE3FGHIRWY/LB1

Departure

Time 2026-04-24 23:42
Airport José Joaquín de Olmedo International Airport (SEGU)

Arrival

Time 2026-04-25 00:12
Airport Mariscal Sucre International Airport (SEQM)
Time Latitude Longitude Altitude Speed Heading
2026-04-24 23:22 -2.15101 -79.88460 27 ft 0 kts 300°
2026-04-24 23:33 -2.15101 -79.88459 29 ft 2 kts 300°
2026-04-24 23:33 -2.15109 -79.88445 29 ft 2 kts 304°
2026-04-24 23:33 -2.15119 -79.88431 29 ft 2 kts 306°
2026-04-24 23:33 -2.15130 -79.88417 29 ft 2 kts 316°
2026-04-24 23:34 -2.15142 -79.88407 29 ft 2 kts 354°
2026-04-24 23:34 -2.15157 -79.88409 29 ft 1 kts 31°
2026-04-24 23:34 -2.15160 -79.88411 29 ft 0 kts 30°
2026-04-24 23:35 -2.15159 -79.88408 29 ft 2 kts 58°
2026-04-24 23:36 -2.15196 -79.88350 29 ft 19 kts 114°
2026-04-24 23:36 -2.15198 -79.88240 29 ft 17 kts 38°
2026-04-24 23:36 -2.15066 -79.88166 29 ft 27 kts 30°
2026-04-24 23:36 -2.14903 -79.88071 29 ft 26 kts 30°
2026-04-24 23:37 -2.14758 -79.87988 29 ft 12 kts 30°
2026-04-24 23:37 -2.14712 -79.87962 29 ft 0 kts 29°
2026-04-24 23:37 -2.14675 -79.87934 29 ft 6 kts 47°
2026-04-24 23:38 -2.14648 -79.87874 29 ft 7 kts 71°
2026-04-24 23:38 -2.14648 -79.87872 29 ft 0 kts 71°
2026-04-24 23:39 -2.14647 -79.87869 29 ft 4 kts 71°
2026-04-24 23:39 -2.14632 -79.87816 28 ft 9 kts 78°
2026-04-24 23:39 -2.14679 -79.87762 28 ft 15 kts 186°
2026-04-24 23:40 -2.14724 -79.87781 27 ft 0 kts 208°
2026-04-24 23:40 -2.14725 -79.87781 27 ft 0 kts 209°
2026-04-24 23:41 -2.14730 -79.87784 27 ft 6 kts 209°
2026-04-24 23:42 -2.14973 -79.87921 29 ft 80 kts 210°
2026-04-24 23:42 -2.15670 -79.88325 27 ft 145 kts 210°
2026-04-24 23:42 -2.16597 -79.88841 521 ft 152 kts 208°
2026-04-24 23:42 -2.17529 -79.89361 1202 ft 149 kts 210°
2026-04-24 23:43 -2.18461 -79.89884 1643 ft 165 kts 207°
2026-04-24 23:43 -2.19615 -79.90296 1929 ft 189 kts 180°
2026-04-24 23:43 -2.20874 -79.89736 2218 ft 218 kts 134°
2026-04-24 23:43 -2.21498 -79.88287 2574 ft 246 kts 93°
2026-04-24 23:44 -2.21030 -79.86562 3139 ft 266 kts 57°
2026-04-24 23:44 -2.19793 -79.85163 4069 ft 270 kts 42°
2026-04-24 23:44 -2.18343 -79.83972 5072 ft 272 kts 37°
2026-04-24 23:44 -2.16825 -79.82823 6023 ft 275 kts 37°
2026-04-24 23:45 -2.15272 -79.81626 6916 ft 280 kts 38°
2026-04-24 23:45 -2.13769 -79.80417 7754 ft 284 kts 39°
2026-04-24 23:45 -2.12226 -79.79122 8644 ft 289 kts 40°
2026-04-24 23:45 -2.10692 -79.77794 9481 ft 293 kts 41°
2026-04-24 23:46 -2.09146 -79.76429 10168 ft 304 kts 41°
2026-04-24 23:46 -2.07509 -79.74966 10435 ft 328 kts 41°
2026-04-24 23:46 -2.05766 -79.73400 10730 ft 348 kts 42°
2026-04-24 23:46 -2.03816 -79.71888 11340 ft 356 kts 31°
2026-04-24 23:47 -2.01652 -79.70668 12021 ft 361 kts 28°
2026-04-24 23:47 -1.99444 -79.69436 12739 ft 365 kts 29°
2026-04-24 23:47 -1.97202 -79.68163 13447 ft 369 kts 29°
2026-04-24 23:47 -1.94956 -79.66883 14087 ft 373 kts 29°
2026-04-24 23:48 -1.92697 -79.65593 14717 ft 376 kts 29°
2026-04-24 23:48 -1.90415 -79.64289 15336 ft 380 kts 29°
2026-04-24 23:48 -1.88109 -79.62971 15966 ft 383 kts 29°
2026-04-24 23:48 -1.85783 -79.61645 16574 ft 386 kts 29°
2026-04-24 23:49 -1.83443 -79.60314 17182 ft 389 kts 29°
2026-04-24 23:49 -1.81082 -79.58974 17794 ft 392 kts 29°
2026-04-24 23:49 -1.78661 -79.57600 18356 ft 396 kts 29°
2026-04-24 23:49 -1.76263 -79.56240 18894 ft 398 kts 29°
2026-04-24 23:50 -1.73842 -79.54869 19441 ft 401 kts 29°
2026-04-24 23:50 -1.71379 -79.53476 20003 ft 403 kts 29°
2026-04-24 23:50 -1.68959 -79.52105 20539 ft 406 kts 29°
2026-04-24 23:50 -1.66472 -79.50693 21102 ft 408 kts 30°
2026-04-24 23:51 -1.63995 -79.49284 21638 ft 410 kts 30°
2026-04-24 23:51 -1.61506 -79.47868 22163 ft 413 kts 30°
2026-04-24 23:51 -1.59003 -79.46445 22677 ft 415 kts 30°
2026-04-24 23:51 -1.56495 -79.45008 22933 ft 416 kts 30°
2026-04-24 23:52 -1.53945 -79.43531 22993 ft 416 kts 30°
2026-04-24 23:52 -1.51487 -79.42098 23004 ft 416 kts 31°
2026-04-24 23:52 -1.48989 -79.40639 23016 ft 415 kts 30°
2026-04-24 23:52 -1.46459 -79.39163 23028 ft 415 kts 30°
2026-04-24 23:53 -1.43966 -79.37711 23036 ft 415 kts 30°
2026-04-24 23:53 -1.41432 -79.36238 23047 ft 416 kts 30°
2026-04-24 23:53 -1.38937 -79.34791 23055 ft 415 kts 30°
2026-04-24 23:53 -1.36430 -79.33339 23060 ft 415 kts 30°
2026-04-24 23:54 -1.33897 -79.31869 23074 ft 416 kts 30°
2026-04-24 23:54 -1.31432 -79.30436 23084 ft 416 kts 30°
2026-04-24 23:54 -1.28895 -79.28959 23090 ft 416 kts 30°
2026-04-24 23:54 -1.26399 -79.27508 23104 ft 416 kts 30°
2026-04-24 23:55 -1.23905 -79.26059 23113 ft 415 kts 30°
2026-04-24 23:55 -1.21405 -79.24606 23124 ft 416 kts 30°
2026-04-24 23:55 -1.18900 -79.23151 23126 ft 416 kts 30°
2026-04-24 23:55 -1.16399 -79.21700 23144 ft 416 kts 30°
2026-04-24 23:56 -1.13866 -79.20232 23145 ft 416 kts 30°
2026-04-24 23:56 -1.11362 -79.18780 23167 ft 415 kts 30°
2026-04-24 23:56 -1.08864 -79.17331 23176 ft 415 kts 30°
2026-04-24 23:56 -1.06366 -79.15883 23178 ft 416 kts 30°
2026-04-24 23:57 -1.03871 -79.14435 23189 ft 416 kts 30°
2026-04-24 23:57 -1.02180 -79.13453 23198 ft 416 kts 30°
2026-04-24 23:57 -0.99674 -79.11997 23199 ft 415 kts 30°
2026-04-24 23:57 -0.97185 -79.10552 23207 ft 415 kts 30°
2026-04-24 23:58 -0.94689 -79.09103 23214 ft 415 kts 30°
2026-04-24 23:58 -0.92189 -79.07654 23229 ft 415 kts 30°
2026-04-24 23:58 -0.89614 -79.06159 23231 ft 415 kts 30°
2026-04-24 23:58 -0.87157 -79.04729 23236 ft 415 kts 31°
2026-04-24 23:59 -0.84635 -79.03262 23237 ft 415 kts 31°
2026-04-24 23:59 -0.82283 -79.01654 23251 ft 414 kts 40°
2026-04-24 23:59 -0.80194 -78.99615 23258 ft 414 kts 50°
2026-04-24 23:59 -0.78530 -78.97276 23201 ft 414 kts 59°
2026-04-25 00:00 -0.77149 -78.94747 22959 ft 416 kts 62°
2026-04-25 00:00 -0.75782 -78.92202 22710 ft 415 kts 62°
2026-04-25 00:00 -0.74417 -78.89651 22473 ft 414 kts 62°
2026-04-25 00:00 -0.73064 -78.87117 22225 ft 413 kts 62°
2026-04-25 00:01 -0.71722 -78.84537 21978 ft 412 kts 62°
2026-04-25 00:01 -0.70408 -78.82010 21751 ft 411 kts 60°
2026-04-25 00:01 -0.68688 -78.79744 21559 ft 408 kts 43°
2026-04-25 00:01 -0.66365 -78.78167 21314 ft 406 kts 24°
2026-04-25 00:02 -0.63648 -78.77418 21059 ft 405 kts
2026-04-25 00:02 -0.60805 -78.77471 20808 ft 405 kts 355°
2026-04-25 00:02 -0.58003 -78.77695 20548 ft 404 kts 355°
2026-04-25 00:02 -0.55201 -78.77924 20306 ft 403 kts 355°
2026-04-25 00:03 -0.52414 -78.78011 20055 ft 401 kts
2026-04-25 00:03 -0.49725 -78.77302 19828 ft 401 kts 24°
2026-04-25 00:03 -0.47371 -78.75762 19346 ft 402 kts 42°
2026-04-25 00:03 -0.45655 -78.73565 18770 ft 403 kts 61°
2026-04-25 00:04 -0.44447 -78.71035 18169 ft 402 kts 65°
2026-04-25 00:04 -0.43293 -78.68484 17410 ft 404 kts 65°
2026-04-25 00:04 -0.42157 -78.65969 17068 ft 386 kts 65°
2026-04-25 00:04 -0.41097 -78.63613 16976 ft 357 kts 66°
2026-04-25 00:05 -0.40342 -78.61370 16994 ft 330 kts 74°
2026-04-25 00:05 -0.39770 -78.59184 17001 ft 316 kts 75°
2026-04-25 00:05 -0.39224 -78.57043 16699 ft 317 kts 75°
2026-04-25 00:05 -0.38674 -78.54882 16112 ft 324 kts 75°
2026-04-25 00:06 -0.38116 -78.52703 15449 ft 323 kts 75°
2026-04-25 00:06 -0.37560 -78.50532 14802 ft 322 kts 75°
2026-04-25 00:06 -0.37007 -78.48377 14249 ft 317 kts 75°
2026-04-25 00:06 -0.36469 -78.46295 14066 ft 299 kts 75°
2026-04-25 00:07 -0.35958 -78.44315 14027 ft 285 kts 75°
2026-04-25 00:07 -0.35480 -78.42460 14005 ft 266 kts 75°
2026-04-25 00:07 -0.35020 -78.40668 13384 ft 267 kts 75°
2026-04-25 00:07 -0.34537 -78.38863 12721 ft 271 kts 70°
2026-04-25 00:08 -0.33676 -78.37192 12028 ft 273 kts 52°
2026-04-25 00:08 -0.32338 -78.35890 11601 ft 263 kts 33°
2026-04-25 00:08 -0.30738 -78.35078 11311 ft 248 kts 18°
2026-04-25 00:08 -0.29069 -78.34758 11009 ft 237 kts
2026-04-25 00:09 -0.27472 -78.34797 10697 ft 221 kts 358°
2026-04-25 00:09 -0.26008 -78.34861 10405 ft 200 kts 358°
2026-04-25 00:09 -0.24689 -78.34917 10167 ft 181 kts 358°
2026-04-25 00:09 -0.23489 -78.34968 9934 ft 165 kts 358°
2026-04-25 00:10 -0.22379 -78.35016 9698 ft 157 kts 358°
2026-04-25 00:10 -0.21293 -78.35062 9504 ft 155 kts 357°
2026-04-25 00:10 -0.20202 -78.35109 9288 ft 155 kts 356°
2026-04-25 00:10 -0.19123 -78.35155 9073 ft 155 kts 357°
2026-04-25 00:11 -0.18052 -78.35200 8828 ft 154 kts 356°
2026-04-25 00:11 -0.17340 -78.35229 8674 ft 154 kts 357°
2026-04-25 00:11 -0.15912 -78.35289 8377 ft 153 kts 357°
2026-04-25 00:11 -0.14843 -78.35332 8122 ft 153 kts 355°
2026-04-25 00:12 -0.13778 -78.35379 7990 ft 145 kts 356°
2026-04-25 00:12 -0.12913 -78.35420 7990 ft 101 kts 357°
2026-04-25 00:12 -0.12380 -78.35442 7989 ft 52 kts 358°
2026-04-25 00:12 -0.12102 -78.35453 7987 ft 37 kts 358°
2026-04-25 00:13 -0.11852 -78.35465 7992 ft 34 kts 352°
2026-04-25 00:13 -0.11679 -78.35544 7993 ft 19 kts 333°
2026-04-25 00:13 -0.11630 -78.35631 7990 ft 16 kts 224°
2026-04-25 00:13 -0.11741 -78.35641 7986 ft 17 kts 176°
2026-04-25 00:14 -0.11861 -78.35632 7986 ft 10 kts 175°
2026-04-25 00:14 -0.11863 -78.35632 7986 ft 0 kts 175°
2026-04-25 00:14 -0.11864 -78.35632 7986 ft 2 kts 181°
2026-04-25 00:15 -0.11896 -78.35633 7986 ft 10 kts 178°
2026-04-25 00:15 -0.11966 -78.35631 7985 ft 10 kts 178°
2026-04-25 00:15 -0.12044 -78.35628 7985 ft 12 kts 178°
2026-04-25 00:15 -0.12147 -78.35625 7985 ft 19 kts 177°
2026-04-25 00:16 -0.12291 -78.35618 7985 ft 21 kts 177°
2026-04-25 00:16 -0.12354 -78.35657 7985 ft 7 kts 285°
2026-04-25 00:16 -0.12361 -78.35722 7993 ft 13 kts 264°
2026-04-25 00:16 -0.12373 -78.35815 7984 ft 14 kts 251°
2026-04-25 00:17 -0.12457 -78.35840 7984 ft 14 kts 176°
2026-04-25 00:17 -0.12557 -78.35834 7984 ft 15 kts 179°
2026-04-25 00:17 -0.12610 -78.35865 7986 ft 6 kts 263°
2026-04-25 00:17 -0.12612 -78.35909 7984 ft 0 kts 267°
2026-04-25 00:18 -0.12613 -78.35915 7984 ft 2 kts 263°